[[{"header":{"parameterUnit":"m.s-1","parameterCategory":1,"la1":30.2991,"la2":30.254,"lo1":-89.0895,"lo2":-89.0444,"dy":0.0017,"dx":0.0017,"nx":28,"ny":28,"refTime":"2024-05-26T09:00:00:Z","depth":0,"parameterNumber":2,"parameterNumberName":"U-component_of_WINDS"},"data":[0,0,0,0,0,0,0,0,0,0,0,0,0,0,0,0,0,0,0,0,0,0,0,0,0,0,0,0,0,0,0,0,0,0,0,0,0,0,0,0,0,0,0,0,0,0,0,0,0,0,0,0,0,0,0,0,0,0,3.1896,3.1897,0,3.1983,3.1984,3.1985,3.193,3.1928,3.1925,3.1923,3.2013,3.2018,3.2022,0,0,0,0,0,0,0,0,0,0,0,0,0,3.1685,3.1689,3.1896,3.1897,3.1899,3.1983,3.1984,3.1985,3.1931,3.1928,3.1924,3.1922,3.2011,3.2017,3.2023,0,0,0,0,0,0,0,0,0,0,0,0,0,3.1774,3.169,3.1896,3.1881,3.1881,3.1982,3.1984,3.1985,3.1931,3.1927,3.1924,3.192,3.2009,3.2016,3.2023,3.2145,0,0,3.2045,3.2049,0,0,0,0,0,0,0,0,3.1769,3.1782,3.1883,3.1883,3.1882,3.1942,3.1942,3.2039,3.1932,3.1912,3.1923,3.1918,3.1992,3.2001,3.2025,3.2149,3.2153,3.2046,3.205,3.2053,3.2055,0,0,0,0,0,0,0,3.1763,3.1778,3.1931,3.1884,3.1884,3.1871,3.1879,3.196,3.1973,3.1914,3.191,3.1921,3.1992,3.2019,3.2027,3.2154,3.2046,3.2052,3.2057,3.2059,3.2378,3.2382,0,0,0,0,0,0,3.1758,3.1773,3.1928,3.1933,3.1815,3.1878,3.1887,3.1927,3.1972,3.1975,3.1924,3.1918,3.2008,3.2019,3.203,3.2172,3.2053,3.206,3.2064,3.2374,3.2379,3.2384,0,0,0,0,0,0,3.1754,3.1772,3.1924,3.1852,3.1871,3.1885,3.193,3.193,3.1957,3.198,3.1982,3.1949,3.2006,3.202,3.2116,3.2175,3.2063,3.207,3.2369,3.2376,3.2382,3.246,0,0,0,0,0,0,3.1748,3.1771,3.1817,3.1854,3.1875,3.2009,3.1934,3.1935,3.1969,3.1962,3.2004,3.2007,3.2004,3.2105,3.2123,3.2183,3.2076,3.2364,3.2372,3.238,3.2452,3.2468,3.2482,0,0,0,0,0,3.1741,3.1837,3.182,3.1839,3.1933,3.2012,3.2024,3.2018,3.1975,3.2021,3.2035,3.2006,3.2166,3.2116,3.2135,3.2198,3.236,3.237,3.2379,3.2445,3.2465,3.2481,0,0,0,0,0,0,3.1808,3.1841,3.1823,3.1934,3.197,3.2003,3.2061,3.2039,3.2089,3.2081,3.2071,3.2081,3.2181,3.2199,3.2142,3.2316,3.2256,3.227,3.23,3.2319,3.2333,3.2326,3.2081,0,0,0,0,0,3.1836,3.1897,3.1923,3.2019,3.2038,3.2046,3.2081,3.2073,3.2111,3.2126,3.2147,3.2185,3.2244,3.2283,3.2338,3.2455,3.2462,3.2508,3.2523,3.2535,3.2546,3.2607,3.2627,3.2415,3.2415,3.2414,0,0,3.1894,3.1919,3.1959,3.2033,3.206,3.2123,3.206,3.213,3.2177,3.2137,3.2227,3.2245,3.2287,3.2393,3.244,3.2411,3.2606,3.2547,3.2556,3.2561,3.2619,3.2639,3.2656,3.2421,3.242,3.2419,0,0,3.2031,3.2058,3.2138,3.2167,3.2209,3.2214,3.2233,3.2269,3.2278,3.2369,3.2339,3.2395,3.2497,3.2527,3.2556,3.2704,3.2678,3.2723,3.2799,3.2859,3.2875,3.289,3.294,3.2959,3.2734,3.2734,3.2735,0,3.2097,3.2192,3.2183,3.2255,3.2288,3.2253,3.2335,3.2363,3.2421,3.2445,3.2411,3.2536,3.2563,3.2674,3.271,3.2735,3.2756,3.2717,3.2874,3.2888,3.2902,3.295,3.2969,3.2739,3.2739,3.2738,3.2738,0,3.227,3.2336,3.2397,3.2452,3.2492,3.2568,3.2571,3.2612,3.2601,3.2609,3.2702,3.2732,3.2791,3.2818,3.2808,3.2928,3.2908,3.2874,3.2813,3.2927,3.2972,3.299,3.2746,3.2745,3.2743,3.2742,0,0,3.2452,3.2501,3.2523,3.2546,3.259,3.264,3.2715,3.2773,3.2807,3.2849,3.291,3.2997,3.2965,3.2998,3.2991,3.3044,3.3156,3.3004,3.3004,3.3029,3.3287,3.331,3.3331,3.314,3.3143,3.3146,3.3282,0,3.259,3.2719,3.2713,3.2833,3.2893,3.2861,3.2926,3.2959,3.2969,3.3021,3.3032,3.3093,3.3048,3.3067,3.3118,3.3132,3.3207,3.3122,3.3196,3.3198,3.3183,3.3355,3.338,3.3507,3.33,3.3303,3.3305,0,3.2767,3.2813,3.2939,3.2971,3.2996,3.3055,3.3106,3.3156,3.3193,3.3197,3.3233,3.3217,3.3292,3.3231,3.3333,3.3275,3.3305,3.3317,3.3322,3.3326,3.3257,3.3362,3.3548,3.3566,3.3333,3.3331,3.3329,0,3.2884,3.2977,3.3064,3.3086,3.3127,3.3168,3.3187,3.322,3.3254,3.33,3.3321,3.3376,3.3405,3.3447,3.3446,3.3402,3.3549,3.3488,3.3553,3.3553,3.3583,3.3581,3.3774,3.3607,3.3607,3.3607,3.3606,0,3.3037,3.3115,3.3116,3.317,3.3256,3.3248,3.3334,3.3349,3.3378,3.3433,3.341,3.3463,3.346,3.3513,3.3513,3.3596,3.3611,3.3615,3.3613,3.3615,3.3614,3.3633,3.3623,3.3612,3.3611,3.361,3.3609,0,3.3181,3.3185,3.3277,3.3308,3.3317,3.3379,3.3405,3.3455,3.3463,3.3533,3.3549,3.3561,3.3622,3.3626,3.3698,3.3698,3.3798,3.3789,3.3785,3.3782,3.3846,3.3839,3.4055,3.4083,3.3901,3.3902,3.3904,0,3.3277,3.3336,3.3372,3.3406,3.3427,3.3484,3.3519,3.3514,3.3551,3.3596,3.3641,3.37,3.3746,3.3845,3.386,3.3914,3.3904,3.3977,3.3912,3.3912,3.3902,3.3898,3.3902,3.3988,3.399,3.3992,3.3993,0,3.3446,3.3445,3.3495,3.3546,3.3587,3.3627,3.3664,3.3694,3.3694,3.3736,3.3798,3.3834,3.3905,3.3963,3.4016,3.4035,3.4014,3.4014,3.4031,3.4032,3.4027,3.4028,3.3816,3.4008,3.4007,3.4006,3.4005,3.4004,3.3567,3.3617,3.3649,3.3705,3.3733,3.3768,3.3815,3.3829,3.3879,3.3936,3.3931,3.3999,3.4033,3.4101,3.4125,3.4177,3.4153,3.4179,3.4185,3.419,3.4196,3.402,3.4187,3.4187,3.4187,3.4186,3.4186,0,3.3733,3.3752,3.3804,3.3855,3.3899,3.3875,3.3915,3.3953,3.4012,3.4046,3.4092,3.4161,3.4217,3.4237,3.4291,3.4329,3.4321,3.4344,3.4339,3.4344,3.4216,3.4194,3.4349,3.4349,3.4349,3.4349,3.4349,3.4349,3.3824,3.3906,3.3909,3.4004,3.4022,3.4087,3.4112,3.4143,3.417,3.4248,3.4294,3.4306,3.4334,3.439,3.444,3.4444,3.4464,3.449,3.449,3.437,3.4353,3.4337,3.4317,3.4495,3.4495,3.4613,3.4614,3.4615]},{"header":{"parameterUnit":"m.s-1","parameterCategory":1,"la1":30.2991,"la2":30.254,"lo1":-89.0895,"lo2":-89.0444,"dy":0.0017,"dx":0.0017,"nx":28,"ny":28,"refTime":"2024-05-26T09:00:00:Z","depth":0,"parameterNumber":3,"parameterNumberName":"V-component_of_WINDS"},"data":[0,0,0,0,0,0,0,0,0,0,0,0,0,0,0,0,0,0,0,0,0,0,0,0,0,0,0,0,0,0,0,0,0,0,0,0,0,0,0,0,0,0,0,0,0,0,0,0,0,0,0,0,0,0,0,0,0,0,1.2285,1.2286,0,1.231,1.231,1.231,1.2284,1.2283,1.2282,1.2281,1.2306,1.2308,1.2309,0,0,0,0,0,0,0,0,0,0,0,0,0,1.2215,1.2217,1.2285,1.2286,1.2286,1.231,1.231,1.231,1.2284,1.2283,1.2281,1.228,1.2306,1.2308,1.231,0,0,0,0,0,0,0,0,0,0,0,0,0,1.2243,1.2217,1.2285,1.2276,1.2275,1.231,1.231,1.2311,1.2284,1.2283,1.2281,1.228,1.2305,1.2307,1.231,1.2355,0,0,1.2317,1.2318,0,0,0,0,0,0,0,0,1.2242,1.2246,1.2277,1.2276,1.2276,1.2292,1.2295,1.2326,1.2285,1.2281,1.2281,1.2279,1.2303,1.2305,1.2313,1.2357,1.2358,1.2317,1.2319,1.232,1.2321,0,0,0,0,0,0,0,1.224,1.2245,1.2295,1.2277,1.2277,1.227,1.2272,1.23,1.23,1.2281,1.2279,1.2282,1.2302,1.2311,1.2314,1.2358,1.2317,1.232,1.2321,1.2322,1.2439,1.244,0,0,0,0,0,0,1.2239,1.2243,1.2294,1.2296,1.2255,1.2272,1.2275,1.2288,1.23,1.23,1.2284,1.2281,1.2308,1.2311,1.2314,1.2368,1.232,1.2322,1.2324,1.2437,1.2439,1.2441,0,0,0,0,0,0,1.2238,1.2244,1.2293,1.2269,1.2275,1.2275,1.2291,1.229,1.2298,1.2302,1.2301,1.2293,1.2306,1.2311,1.2345,1.2369,1.2323,1.2326,1.2435,1.2438,1.244,1.2476,0,0,0,0,0,0,1.2236,1.2243,1.2261,1.227,1.2276,1.2324,1.2292,1.2291,1.2303,1.2299,1.231,1.231,1.2306,1.2342,1.2348,1.2371,1.2327,1.2433,1.2436,1.2439,1.2473,1.2479,1.2485,0,0,0,0,0,1.2233,1.227,1.2262,1.2268,1.2298,1.2325,1.2329,1.2323,1.2305,1.2322,1.2324,1.231,1.2365,1.2345,1.2352,1.2376,1.2432,1.2436,1.2439,1.247,1.2478,1.2485,0,0,0,0,0,0,1.2265,1.2271,1.2262,1.2303,1.2314,1.2321,1.2343,1.2332,1.2348,1.2344,1.2336,1.2338,1.2374,1.2379,1.2357,1.2421,1.2395,1.2401,1.2417,1.2424,1.243,1.2429,1.233,0,0,0,0,0,1.2277,1.2298,1.2303,1.2338,1.2344,1.2343,1.2354,1.2348,1.2359,1.2363,1.2368,1.2379,1.2398,1.2411,1.243,1.2473,1.2475,1.2493,1.2499,1.2504,1.2509,1.2531,1.2539,1.2453,1.2453,1.2453,0,0,1.2301,1.2307,1.2322,1.2345,1.2352,1.2375,1.2347,1.2372,1.2388,1.2367,1.24,1.2403,1.2415,1.2453,1.2471,1.2458,1.2533,1.2509,1.2513,1.2515,1.2536,1.2544,1.2551,1.2456,1.2455,1.2455,0,0,1.2357,1.2364,1.2395,1.2402,1.2414,1.2412,1.242,1.2428,1.2429,1.2462,1.2446,1.2466,1.25,1.2508,1.2517,1.2575,1.2563,1.2581,1.2614,1.2636,1.2642,1.2648,1.2669,1.2676,1.2586,1.2586,1.2586,0,1.2387,1.242,1.2412,1.2437,1.2448,1.2429,1.246,1.2468,1.2485,1.2492,1.2478,1.252,1.2526,1.2566,1.258,1.2588,1.2596,1.258,1.2642,1.2648,1.2653,1.2673,1.268,1.2588,1.2588,1.2588,1.2588,0,1.2455,1.2478,1.2501,1.2517,1.253,1.2558,1.2554,1.2568,1.256,1.256,1.2593,1.26,1.2619,1.2628,1.2621,1.2667,1.2659,1.2643,1.2618,1.2664,1.2682,1.2689,1.2591,1.2591,1.259,1.2589,0,0,1.2532,1.2543,1.2552,1.2558,1.2569,1.2587,1.2613,1.2632,1.2644,1.2656,1.2678,1.2706,1.2692,1.2702,1.2696,1.2715,1.276,1.2698,1.2698,1.2709,1.281,1.2822,1.283,1.2752,1.2753,1.2754,1.2809,0,1.2588,1.2634,1.2627,1.2672,1.2693,1.2675,1.2698,1.2707,1.2708,1.2725,1.2726,1.2746,1.2726,1.2731,1.275,1.2751,1.2781,1.2747,1.2772,1.2773,1.277,1.284,1.2852,1.2904,1.2816,1.2817,1.2818,0,1.266,1.2674,1.2721,1.2727,1.2736,1.2757,1.2772,1.279,1.2799,1.2798,1.2809,1.2799,1.2825,1.2799,1.2835,1.2812,1.2822,1.2824,1.2825,1.2828,1.2799,1.2844,1.292,1.2928,1.2829,1.2828,1.2828,0,1.2711,1.2742,1.2774,1.278,1.2789,1.2804,1.2808,1.2816,1.2827,1.2841,1.2848,1.2865,1.2874,1.2887,1.2881,1.2863,1.2918,1.2892,1.2918,1.2918,1.293,1.293,1.3009,1.2937,1.2937,1.2936,1.2936,0,1.2775,1.2804,1.2797,1.2816,1.2848,1.2839,1.2871,1.2873,1.288,1.29,1.2886,1.2904,1.2896,1.2914,1.291,1.294,1.2944,1.2944,1.2942,1.2945,1.2945,1.2951,1.2948,1.2938,1.2938,1.2938,1.2937,0,1.2838,1.2834,1.2867,1.2873,1.2874,1.2898,1.2902,1.292,1.2919,1.2944,1.2949,1.2947,1.2967,1.2963,1.2985,1.2983,1.302,1.3014,1.3017,1.3016,1.3042,1.3039,1.3128,1.3139,1.306,1.3061,1.3061,0,1.2878,1.29,1.2907,1.2919,1.2924,1.2944,1.2955,1.2947,1.2959,1.2971,1.2987,1.3006,1.3021,1.3054,1.3054,1.3071,1.3065,1.3095,1.3068,1.307,1.3066,1.3064,1.3066,1.3101,1.3102,1.3103,1.3103,0,1.295,1.2947,1.2964,1.2979,1.2993,1.3005,1.3016,1.3026,1.3019,1.3033,1.3053,1.3065,1.3087,1.3105,1.3121,1.3125,1.3113,1.3112,1.3119,1.3122,1.3122,1.3122,1.3032,1.311,1.3109,1.3109,1.3108,1.3108,1.3003,1.3021,1.3029,1.3048,1.3055,1.3065,1.3082,1.3083,1.3099,1.3117,1.3111,1.3134,1.3142,1.3161,1.3167,1.3185,1.3173,1.3183,1.3186,1.3189,1.3192,1.3119,1.3187,1.3187,1.3187,1.3187,1.3187,0,1.3074,1.3078,1.3095,1.311,1.3125,1.3112,1.3123,1.3136,1.3156,1.3164,1.3179,1.3202,1.3219,1.3221,1.3238,1.3252,1.3246,1.3256,1.3255,1.3256,1.3201,1.3193,1.326,1.326,1.326,1.326,1.326,1.326,1.3113,1.3143,1.3141,1.3174,1.3178,1.32,1.3207,1.3216,1.3223,1.3249,1.3264,1.3264,1.327,1.3287,1.3302,1.3302,1.3309,1.3321,1.3319,1.3267,1.326,1.3253,1.3246,1.3323,1.3323,1.3373,1.3373,1.3373]}]]